Powrót do katalogu

COSMOS 2117

AktywnyMilitariaPO
NORAD 21031·PAYLOAD·🇷🇺 Russia

Wystrzelony Dec 22, 1990 z Plesetsk Cosmodrome

Loading…

Następne Przeloty (najbliższe 24 godziny)

TLE

ŚwieżeSource: Space-Track

Epoka: Sep 14, 2026, 02:33 UTC

1 21031U 90114D   26257.10626256  .00000040  00000-0  15969-3 0  9999
2 21031  82.5764 140.3258 0007133 221.4628 292.9729 12.65033480649510

Śledź COSMOS 2117 w czasie rzeczywistym z AllMySat

Download on the App Store